Location: Saluda
(35.2377°N, 82.3468°W)
Time: 17:55:26
(UTC+00:00)

SR - Pass Details

Date: 12 October 2022
Orbit: 577 x 874 km, 66.7° (Epoch: 05 December)

Event Time Altitude Azimuth Distance (km) Brightness Sun altitude
Rises 07:49:21 0° 349° (NNW) 3,282 - -45.2°
Reaches altitude 10° 07:52:53 10° 11° (NNE) 2,284 - -44.6°
Maximum altitude 07:55:54 15° 47° (NE) 1,881 - -44.0°
Drops below altitude 10° 07:58:46 10° 83° (E) 2,160 - -43.5°
Exits shadow 07:59:57 - 93° (E) 2,429 ? -43.3°
Sets 08:01:57 0° 106° (ESE) 3,007 ? -42.9°
